User: anonymous   Login
Location: Unspecified
(0.0000°N, 0.0000°E)
Time: 13:53:53
(UTC+01:00)
Language:

Gbstr 26 Del rocket - Orbit

View from above orbital plane
View from above orbital plane
View from above satellite
View from above satellite

Ground track
Ground track

The orbit data is extracted from the following two-line orbital elements,

1 25876U 99041E   16040.50058518  .00000294  00000-0  92516-4 0  9996
2 25876  51.7641 104.1284 0533755  29.6133 333.3925 14.03671814845275
Epoch (UTC): 09 February 2016 12:00:50
Eccentricity: 0.0533755
inclination: 51.7641°
perigee height: 493 km
apogee height: 1268 km
right ascension of ascending node: 104.1284°
argument of perigee: 29.6133°
revolutions per day: 14.03671814
mean anomaly at epoch: 333.3925°
orbit number at epoch: 84527

The dashed part of the orbit path shows where the satellite is in the earth's shadow,  

DLR